Regional Weather Roundup
Issued by NWS

Home | Current Version | Previous Version | Text Only | Print | Product List | Glossary Off
Versions: 1 2 3 4 5 6 7 8 9 10 11 12 13 14 15 16 17 18 19 20 21 22 23 24 25 26 27 28 29 30 31 32 33 34 35 36 37 38 39 40 41 42 43 44 45 46 47 48 49

000
ASUS45 KBOU 160407
RWRCO

WEATHER ROUNDUP FOR COLORADO
NATIONAL WEATHER SERVICE DENVER/BOULDER CO
1000 PM MDT MON SEP 15 2014

NOTE: "FAIR" INDICATES FEW OR NO CLOUDS BELOW 12000 FEET WITH NO
SIGNIFICANT WEATHER AND/OR OBSTRUCTIONS TO VISIBILITY.

COZ001>005-013-030-031-160500-
...NORTHWEST COLORADO...

CITY           SKY/WX    TMP DP  RH WIND       PRES   REMARKS
CRAIG          CLEAR     52  46  80 CALM      30.26R
HAYDEN         CLEAR     61  36  39 S6        30.28S
MEEKER         CLEAR     56  41  57 E8        30.29R
MOUNT WERNER   NOT AVBL
STEAMBOAT SPGS CLEAR     58  40  51 CALM      30.31R
WALDEN         PTCLDY    50  36  57 E7        30.39S
$$

COZ006>008-011-160500-
...WEST CENTRAL VALLEYS...

CITY           SKY/WX    TMP DP  RH WIND       PRES   REMARKS
GRAND JUNCTION CLEAR     66  42  41 CALM      30.14R
MONTROSE       CLEAR     64  40  41 SE9       30.25R
EAGLE          CLEAR     57  41  54 E5        30.33R
RIFLE          CLEAR     61  42  49 S6        30.23R
DELTA          CLEAR     67  42  40 CALM      30.19R
NUCLA          CLEAR     68  37  32 E10       30.27R
$$

COZ017>023-064>068-160500-
...SOUTHWEST COLORADO...

CITY           SKY/WX    TMP DP  RH WIND       PRES   REMARKS
DURANGO        PTCLDY    64  40  41 N10       30.32R
CORTEZ         CLEAR     59  43  55 E7        30.24R
PAGOSA SPRINGS MOCLDY    63  37  39 CALM      30.41R
TELLURIDE      NOT AVBL
WOLF CREEK PAS PTCLDY    43  34  70 SW10      30.69R
$$

COZ009-010-012-014-032>034-037-058>063-160500-
...CENTRAL COLORADO...

CITY           SKY/WX    TMP DP  RH WIND       PRES   REMARKS
ASPEN          PTCLDY    53  37  54 SW8       30.39S
BUENA VISTA    PTCLDY    53  44  69 SW3       30.45S
COPPER MTN     CLEAR     50  28  43 W13G22    30.68S
BERTHOUD PASS  FAIR      41  39  93 W14       30.71S
COTTONWOOD PAS PTCLDY    55  39  54 CALM      30.57R
GUNNISON       PTCLDY    55  36  47 N7        30.40S
KREMMLING      CLEAR     50  39  66 CALM      30.37S
LEADVILLE      CLEAR     46  32  58 CALM      30.54R
MONARCH PASS   CLOUDY    45  37  76 E9        30.79S
SALIDA         PTCLDY    59  47  66 SE7       30.50R
SUNLIGHT       CLEAR     54  32  43 CALM      30.62S
WILKERSON PASS NOT AVBL
$$

COZ069>075-160500-
...SAN LUIS VALLEY/SANGRE DE CRISTO MOUNTAINS...

CITY           SKY/WX    TMP DP  RH WIND       PRES   REMARKS
ALAMOSA        PTCLDY    57  45  64 SE10      30.41R
LA VETA PASS   NOT AVBL
SAGUACHE       NOT AVBL
$$

COZ035-036-038>040-160500-
...NORTHERN COLORADO FRONT RANGE...

CITY           SKY/WX    TMP DP  RH WIND       PRES   REMARKS
DENVER INTL AP CLEAR     61  50  67 SW9       30.25R
DMNS CITY PARK   N/A     56  53  89 S2        30.25S
AURORA         CLEAR     60  50  70 S9        30.27S
FRONT RANGE AP CLEAR     61  52  72 S14       30.26
ERIE MUNI ARPT CLEAR     55  49  79 CALM      30.24S
BOULDER MUN AP CLEAR     59  50  72 CALM      30.24S
CENTENNIAL     PTCLDY    60  50  69 S12       30.28S
BROOMFIELD     PTCLDY    59  46  63 W3        30.26S
FORT COLLINS   CLEAR     57  50  77 E6        30.24F
LONGMONT       CLEAR     56  48  74 CALM      30.25S
$$

COZ041-046-047-076>085-087-088-160500-
...PIKES PEAK/PALMER DIVIDE AND SOUTHERN FOOTHILLS...

CITY           SKY/WX    TMP DP  RH WIND       PRES   REMARKS
COLO. SPRINGS  CLOUDY    53  51  93 SE8       30.38F
A. F. ACADEMY  MOCLDY    54  50  86 SE9       30.38S
ELLICOTT       NOT AVBL
FALCON         FOG       52  51  97 S10       30.41F VSB 3/4
FORT CARSON    CLOUDY    54  52  92 SE6       30.36F
LIMON          CLOUDY    53  50  89 S13       30.32F
MONUMENT HILL  CLEAR     50  46  87 S17G24    30.35F
TRINIDAD       CLEAR     51  48  89 CALM      30.35S
$$

COZ042>045-048>051-090-091-160500-
...NORTHEAST COLORADO...

CITY           SKY/WX    TMP DP  RH WIND       PRES   REMARKS
GREELEY ARPT   CLEAR     54  46  76 NE3       30.23S
AKRON          CLEAR     54  50  86 S17G24    30.25S
BURLINGTON     CLOUDY    57  51  80 S9        30.29F
WRAY           CLEAR     54  47  77 SE8       30.26S
STERLING       CLEAR     57  54  88 S7        30.21F
HOLYOKE        CLEAR     54  48  82 S7        30.25S
FORT MORGAN    CLEAR     55  50  85 SE7       30.23S
$$

COZ086-089-092>099-160500-
...SOUTHEAST COLORADO...

CITY           SKY/WX    TMP DP  RH WIND       PRES   REMARKS
PUEBLO         PTCLDY    58  53  84 SE9       30.31S
LA JUNTA       CLOUDY    61  52  72 S8        30.32R
LAMAR          CLOUDY    61  53  75 S5        30.29S
SPRINGFIELD      N/A     56  53  90 SE5       30.33R
$$



USA.gov is the U.S. government's official web portal to all federal, state and local government web resources and services.